Regional Weather Roundup
Issued by NWS

Home | Current Version | Previous Version | Text Only | Print | Product List | Glossary On
Versions: 1 2 3 4 5 6 7 8 9 10 11 12 13 14 15 16 17 18 19 20 21 22 23 24 25 26 27
000
ASUS45 KREV 231010
RWRNV
NEVADA REGIONAL WEATHER ROUNDUP
NATIONAL WEATHER SERVICE RENO NV
300 AM PDT WED AUG 23 2017

NOTE: "FAIR" INDICATES FEW OR NO CLOUDS BELOW 12,000 FEET WITH NO
SIGNIFICANT WEATHER AND/OR OBSTRUCTIONS TO VISIBILITY.

NVZ001-003-004-231100-
WESTERN NEVADA

CITY           SKY/WX    TMP DP  RH WIND       PRES   REMARKS
RENO           FAIR      62  48  60 W3        30.19F
CARSON CITY    FAIR      57  46  67 CALM      30.22S
MINDEN         FAIR      52  45  76 SE3       30.22S
FALLON         FAIR      68  47  46 SE10      30.14S
LOVELOCK       FAIR      56  47  71 S6        30.13S
HAWTHORNE      CLEAR     61  52  72 S7        30.17S
$$

NVZ002-CAZ072-073-231100-
NORTHERN AND CENTRAL SIERRA

CITY           SKY/WX    TMP DP  RH WIND       PRES   REMARKS
S. LAKE TAHOE  FAIR      47  46  97 SW3       30.30S
TRUCKEE          N/A     43  43 100 CALM      30.30S FOG
SQUAW VLY 8000   N/A     52  41  66 CALM        N/A
SUSANVILLE     CLEAR     64  48  55 SW3       30.16F
MAMMOTH LAKES  FAIR      49  39  69 CALM      30.36S
BRIDGEPORT     MOCLDY    47  43  86 CALM      30.33S
$$

NVZ030-031-036-231100-
NORTHERN NEVADA

CITY           SKY/WX    TMP DP  RH WIND       PRES   REMARKS
ELKO           FAIR      58  48  69 CALM      30.22S
WINNEMUCCA     FAIR      69  46  43 S9        30.15F
WENDOVER       FAIR      66  50  56 W3        30.15S
$$

NVZ035-037-231100-
CENTRAL NEVADA

CITY           SKY/WX    TMP DP  RH WIND       PRES   REMARKS
ELY            FAIR      52  48  86 S15       30.30S
EUREKA           N/A     53  48  83 S7        30.28S
$$

NVZ013-014-231100-
SOUTH CENTRAL NEVADA

CITY           SKY/WX    TMP DP  RH WIND       PRES   REMARKS
TONOPAH        FAIR      61  42  49 N9        30.23S
$$

NVZ017-020-022-231100-
SOUTHERN NEVADA

CITY           SKY/WX    TMP DP  RH WIND       PRES   REMARKS
LAS VEGAS      MOCLDY    86  47  25 CALM      29.96S
N. LAS VEGAS   FAIR      83  46  27 NW5       29.96R
NELLIS AFB     FAIR      81  42  24 CALM      29.94R
HENDERSON      FAIR      81  48  31 S8        30.01R
MERCURY        FAIR      73  42  32 E5        30.05S
$$




USA.gov is the U.S. government's official web portal to all federal, state and local government web resources and services.